Погода в Соломне

Украина / Хмельницкая область     49°23′38″N   26°20′57″E
темп.,
°C
ветер,
м/с
пор.,
м/с
влажн.,
%
обл.,
%
осадки,
мм/ч
давл.,
гПа
погр.,
м
19 апреля, пн
пн1900:00+9св1175100 0.0 101711
03:00+8ююв0077100 0.0 101710
06:00+8ссв2279100 0.0 101655
09:00+9всв3478100 0.3 1016354
12:00+12вюв4456100 0.6 10151389
15:00+13вюв3449100 0.9 10141531
18:00+12в5552100 0.2 10131282
21:00+8в51070100 0.3 1015386
20 апреля, вт
вт2000:00+7в3676100 0.0 1014211
03:00+7св2375100 0.2 101384
06:00+7св2381100 0.2 101364
09:00+7ссв4575100 0.3 1013422
12:00+11ссв445686 0.4 10111464
15:00+12ссв4451100 1.4 10101579
18:00+11ссв555853 0.3 10101143
21:00+7ссв34765 0.3 101282
21 апреля, ср
ср2100:00+5сз11765 0.0 101210
03:00+5з228134 0.0 101214
06:00+4з2285100 0.0 101319
09:00+9зюз357178 0.0 1013315
12:00+12зюз345210 0.1 10131440
15:00+13з5654100 1.8 10121418
18:00+13з4658100 1.0 10121247
21:00+9зюз387955 1.3 1014163
22 апреля, чт
чт2200:00+7юз3785100 0.0 1014143
03:00+6юз368493 0.0 101592
06:00+6зюз3886100 0.2 1015169
09:00+10юз5107679 0.6 1015676
12:00+9зюз4882100 0.5 1016578
15:00+14юз586034 0.9 10141429
18:00+14зюз47605 0.7 10141214
21:00+10ююз337492 0.9 101427
23 апреля, пт
пт2300:00+8зюз388946 0.3 1015176
03:00+6ссз249598 0.3 1015140
06:00+4ссз5894100 0.3 1016480
09:00+4зсз3795100 1.6 1018515
12:00+9з575877 0.3 10181640
15:00+10з684853 0.4 10171886
18:00+10зсз694642 0.0 10181938
21:00+5зсз38725 0.0 1020186